STARLINK-31038, 58605

Orbit data source: Space-Track

STARLINK-31038, 58605 is a payload satellite owned by SpaceX/Seattle (US) in LEO that was launched on Tue, 19 Dec 2023 UTC via an FALCON 9 launch vehicle from the Air Force Eastern Test Range (AFETR). Payload-class satellites include a variety of spacecraft equipped with specific instruments for various scientific and technological missions. These include communications satellites like Starlink; space stations such as the ISS; scientific satellites like the Hubble; Earth observation satellites from companies like Planet Labs, Umbra, and HawkEye 360; GPS; miniature CubeSats for education and research; and military/defense satellites.

Loading next visibility...
Identifier
58605, 2023-200S
Orbit
LEO
Country
Flag of USUS
Related business
Manufacturer
SpaceX/Seattle
Mission
Partially operational Commercial Communications
Bus & Motor
STARLINK V2M, Unknown motor
Mass
730 kg wet, ~700 kg dry
Launch date (UTC)
2023-12-19 (3 years ago)
Launch vehicle
FALCON 9
Launch site
Air Force Eastern Test Range (AFETR)
Object type
Payload
Rocket body
Debris
Shape & HBR
Box + 2 Pan, 17.7 m
Radar Cross Section
33.884 m², Large (>1 m²)

Expand to show TLE details & history
Last TLE update: 2 days ago

TLE from 2 days ago
0 STARLINK-31038
1 58605U 23200S   26171.43240113  .00057039  00000-0  16069-2 0  9994
2 58605  42.9958 306.0560 0010020 323.0730  36.9433 15.35589583139355
Epoch: 2026-06-20T10:22Z
TLE epoch observation values (Epoch: 2026-06-20T10:22:39.457Z)
Latitude
-0.00009°
Longitude
-118.25561°
Altitude
453.472 km
Speed
7.645 km/s
True Right ascension
20h 24m 13s
True Declination
0° 00' 00"
Sunlit
Object was in full shadow at epoch
Visualization orbit readout
Latitude
Unknown
Longitude
Unknown
Altitude
Unknown
Speed
Unknown
Apparent Right ascension
Unknown
Apparent Declination
Unknown
Sunlit
N/A
Visualization observer readout
Local Sidereal Time
21:31:00
Azimuth
Unknown
Elevation
Unknown
Doppler factor
Unknown
Orbital elements
Apogee altitude
467.975 km
Perigee altitude
454.27 km
Semi-major axis
6,839.259 km
Eccentricity
0.001
Inclination
42.9958°
RAAN
306.056°
Arg. of periapsis
323.073°
True anomaly
37.01238°
Mean anomaly
36.9433°
Eccentric anomaly
36.97783°
Mean motion
3.83733 °/min
Orbital period
93.82 mins
BSTAR
0.0016069
Loading maneuver chart data...
Computing Atmospheric mass density...
Loading historical data...
Loading historical data...
Loading historical data...
Loading historical data...
Loading historical data...
Loading historical data...
Loading historical data...

Documentation

Showing up to 5 results
|